N98CK KADH-C75

Flight info

Callsign N98CK
Flight time N/A
Altitude 45000
Route DCT DWINE DCT HLV DCT NORIS DCT
Aircraft C750/M-VGD/C

Departure

Time 2026-05-06 22:19
Airport Ada Regional Airport (KADH)

Arrival

Time N/A
Airport C75
Time Latitude Longitude Altitude Speed Heading
2026-05-06 22:02 34.80383 -96.67356 1003 ft 0 kts 178°
2026-05-06 22:15 34.80381 -96.67356 1012 ft 1 kts 177°
2026-05-06 22:15 34.80363 -96.67345 1003 ft 5 kts 146°
2026-05-06 22:16 34.80320 -96.67331 1002 ft 8 kts 176°
2026-05-06 22:16 34.80258 -96.67330 1000 ft 9 kts 180°
2026-05-06 22:16 34.80189 -96.67330 999 ft 10 kts 180°
2026-05-06 22:16 34.80117 -96.67331 997 ft 11 kts 180°
2026-05-06 22:17 34.80037 -96.67331 995 ft 12 kts 179°
2026-05-06 22:17 34.79952 -96.67331 993 ft 13 kts 180°
2026-05-06 22:17 34.79861 -96.67331 991 ft 13 kts 180°
2026-05-06 22:17 34.79766 -96.67331 993 ft 14 kts 180°
2026-05-06 22:18 34.79671 -96.67330 987 ft 11 kts 180°
2026-05-06 22:18 34.79629 -96.67292 986 ft 7 kts 92°
2026-05-06 22:18 34.79629 -96.67225 984 ft 9 kts 87°
2026-05-06 22:18 34.79662 -96.67197 985 ft 9 kts
2026-05-06 22:19 34.79963 -96.67198 995 ft 98 kts 360°
2026-05-06 22:19 34.80887 -96.67200 1177 ft 148 kts
2026-05-06 22:19 34.81903 -96.67212 2120 ft 144 kts
2026-05-06 22:19 34.82899 -96.66939 2994 ft 152 kts 24°
2026-05-06 22:20 34.83729 -96.66087 3806 ft 166 kts 51°
2026-05-06 22:20 34.84396 -96.64852 4512 ft 185 kts 54°
2026-05-06 22:20 34.85168 -96.63465 5076 ft 211 kts 53°
2026-05-06 22:20 34.86060 -96.61906 5574 ft 238 kts 52°
2026-05-06 22:21 34.87027 -96.60124 6044 ft 266 kts 56°
2026-05-06 22:21 34.88055 -96.58125 6546 ft 288 kts 53°
2026-05-06 22:21 34.89382 -96.56272 7450 ft 292 kts 40°
2026-05-06 22:21 34.90959 -96.54655 8355 ft 301 kts 34°
2026-05-06 22:22 34.92607 -96.53004 9267 ft 313 kts 36°
2026-05-06 22:22 34.94239 -96.51176 10086 ft 324 kts 39°
2026-05-06 22:22 34.95936 -96.49227 10460 ft 348 kts 38°
2026-05-06 22:22 34.97770 -96.47204 11023 ft 358 kts 37°
2026-05-06 22:23 34.99639 -96.45164 11850 ft 363 kts 38°
2026-05-06 22:23 35.01530 -96.43069 12566 ft 371 kts 39°
2026-05-06 22:23 35.03456 -96.40919 13275 ft 379 kts 39°
2026-05-06 22:23 35.05400 -96.38762 13994 ft 386 kts 38°
2026-05-06 22:24 35.07404 -96.36544 14675 ft 391 kts 38°
2026-05-06 22:24 35.09436 -96.34289 15366 ft 397 kts 38°
2026-05-06 22:24 35.11489 -96.32005 16073 ft 401 kts 38°
2026-05-06 22:24 35.13566 -96.29694 16800 ft 407 kts 37°
2026-05-06 22:25 35.15674 -96.27350 17545 ft 412 kts 37°
2026-05-06 22:25 35.17807 -96.24975 18301 ft 418 kts 37°
2026-05-06 22:25 35.19974 -96.22560 18958 ft 424 kts 37°
2026-05-06 22:25 35.22219 -96.20222 19605 ft 426 kts 32°
2026-05-06 22:26 35.24561 -96.17959 20323 ft 430 kts 31°
2026-05-06 22:26 35.26893 -96.15695 21013 ft 436 kts 31°
2026-05-06 22:26 35.29275 -96.13347 21720 ft 442 kts 32°
2026-05-06 22:26 35.31679 -96.10974 22405 ft 447 kts 31°
2026-05-06 22:27 35.34134 -96.08571 23106 ft 453 kts 31°
2026-05-06 22:27 35.36611 -96.06149 23764 ft 459 kts 31°
2026-05-06 22:27 35.39113 -96.03686 24358 ft 464 kts 31°
2026-05-06 22:27 35.41641 -96.01192 24915 ft 470 kts 31°
2026-05-06 22:28 35.44203 -95.98670 25480 ft 475 kts 31°
2026-05-06 22:28 35.46798 -95.96117 26045 ft 480 kts 30°
2026-05-06 22:28 35.49425 -95.93527 26606 ft 486 kts 30°
2026-05-06 22:28 35.52076 -95.90907 27171 ft 491 kts 31°
2026-05-06 22:29 35.54722 -95.88291 27720 ft 497 kts 30°
2026-05-06 22:29 35.57432 -95.85613 28276 ft 502 kts 30°
2026-05-06 22:29 35.60168 -95.82905 28849 ft 507 kts 30°
2026-05-06 22:29 35.62931 -95.80167 29401 ft 512 kts 30°
2026-05-06 22:30 35.65717 -95.77404 29943 ft 517 kts 30°
2026-05-06 22:30 35.68534 -95.74609 30413 ft 522 kts 30°
2026-05-06 22:30 35.71370 -95.71789 30904 ft 525 kts 30°
2026-05-06 22:30 35.74225 -95.68948 31383 ft 529 kts 30°
2026-05-06 22:31 35.76125 -95.67059 31685 ft 532 kts 30°
2026-05-06 22:31 35.79012 -95.64185 32146 ft 535 kts 30°
2026-05-06 22:31 35.81919 -95.61286 32601 ft 539 kts 30°
2026-05-06 22:31 35.84847 -95.58363 33073 ft 543 kts 30°
2026-05-06 22:32 35.87792 -95.55421 33510 ft 547 kts 30°
2026-05-06 22:32 35.90764 -95.52451 33951 ft 551 kts 30°
2026-05-06 22:32 35.93752 -95.49460 34329 ft 555 kts 30°
2026-05-06 22:32 35.96749 -95.46453 34829 ft 555 kts 30°
2026-05-06 22:33 35.99700 -95.43487 35437 ft 552 kts 29°
2026-05-06 22:33 36.02677 -95.40501 35994 ft 552 kts 29°
2026-05-06 22:33 36.05657 -95.37512 36561 ft 551 kts 29°
2026-05-06 22:33 36.08626 -95.34524 37151 ft 550 kts 29°
2026-05-06 22:34 36.11594 -95.31531 37737 ft 549 kts 28°
2026-05-06 22:34 36.14554 -95.28548 38344 ft 548 kts 28°
2026-05-06 22:34 36.17508 -95.25570 38907 ft 547 kts 28°
2026-05-06 22:34 36.20451 -95.22597 39475 ft 545 kts 28°
2026-05-06 22:35 36.23380 -95.19631 40036 ft 542 kts 28°
2026-05-06 22:35 36.26298 -95.16678 40598 ft 540 kts 28°
2026-05-06 22:35 36.29199 -95.13743 41140 ft 538 kts 28°
2026-05-06 22:35 36.32087 -95.10815 41705 ft 535 kts 29°
2026-05-06 22:36 36.34923 -95.07934 42231 ft 533 kts 29°
2026-05-06 22:36 36.37793 -95.05018 42727 ft 531 kts 29°
2026-05-06 22:36 36.40650 -95.02113 43222 ft 529 kts 29°
2026-05-06 22:36 36.43495 -94.99218 43723 ft 527 kts 29°
2026-05-06 22:37 36.46326 -94.96331 44203 ft 525 kts 29°
2026-05-06 22:37 36.49149 -94.93452 44665 ft 524 kts 29°
2026-05-06 22:37 36.51963 -94.90580 45003 ft 524 kts 29°
2026-05-06 22:37 36.54806 -94.87684 44980 ft 532 kts 30°
2026-05-06 22:38 36.60602 -94.81751 44987 ft 547 kts 30°
2026-05-06 22:38 36.66556 -94.75641 44985 ft 561 kts 30°
2026-05-06 22:39 36.72626 -94.69405 44999 ft 573 kts 31°
2026-05-06 22:39 36.78813 -94.63024 45003 ft 578 kts 31°
2026-05-06 22:40 36.85021 -94.56616 45010 ft 575 kts 31°
2026-05-06 22:40 36.91151 -94.50274 45012 ft 574 kts 31°
2026-05-06 22:41 37.00373 -94.40712 45023 ft 575 kts 31°
2026-05-06 22:42 37.06529 -94.34303 45026 ft 573 kts 31°
2026-05-06 22:42 37.12681 -94.27899 45026 ft 574 kts 31°
2026-05-06 22:43 37.18776 -94.21525 45016 ft 572 kts 31°